N4042M KLAX-

Flight info

Callsign N4042M
Flight time N/A
Altitude VFR
Route
Aircraft SR22/L-VGD/C

Departure

Time 2026-05-06 22:06
Airport Los Angeles International Airport (KLAX)

Arrival

Time N/A
Airport -
Time Latitude Longitude Altitude Speed Heading
2026-05-06 21:56 33.93344 -118.39154 121 ft 0 kts 180°
2026-05-06 21:59 33.93343 -118.39154 121 ft 0 kts 184°
2026-05-06 22:00 33.93338 -118.39159 121 ft 1 kts 249°
2026-05-06 22:00 33.93353 -118.39163 120 ft 7 kts 17°
2026-05-06 22:00 33.93381 -118.39158 121 ft 9 kts
2026-05-06 22:00 33.93424 -118.39156 121 ft 4 kts
2026-05-06 22:01 33.93460 -118.39155 121 ft 0 kts
2026-05-06 22:01 33.93492 -118.39152 121 ft 11 kts
2026-05-06 22:01 33.93534 -118.39077 121 ft 16 kts 85°
2026-05-06 22:01 33.93547 -118.38904 121 ft 18 kts 86°
2026-05-06 22:02 33.93559 -118.38803 121 ft 14 kts 83°
2026-05-06 22:02 33.93572 -118.38677 121 ft 17 kts 85°
2026-05-06 22:02 33.93589 -118.38514 121 ft 17 kts 84°
2026-05-06 22:02 33.93603 -118.38369 121 ft 11 kts 85°
2026-05-06 22:03 33.93629 -118.38284 119 ft 7 kts 30°
2026-05-06 22:03 33.93633 -118.38282 120 ft 0 kts 18°
2026-05-06 22:05 33.93633 -118.38281 119 ft 0 kts 19°
2026-05-06 22:05 33.93690 -118.38284 121 ft 15 kts 342°
2026-05-06 22:05 33.93729 -118.38348 121 ft 0 kts 266°
2026-05-06 22:06 33.93709 -118.38555 119 ft 61 kts 263°
2026-05-06 22:06 33.93644 -118.39199 273 ft 85 kts 261°
2026-05-06 22:06 33.93562 -118.39932 508 ft 92 kts 259°
2026-05-06 22:06 33.93500 -118.40646 888 ft 80 kts 259°
2026-05-06 22:07 33.93479 -118.41291 1347 ft 76 kts 263°
2026-05-06 22:07 33.93439 -118.41970 1766 ft 90 kts 266°
2026-05-06 22:07 33.93340 -118.42765 2262 ft 101 kts 262°
2026-05-06 22:07 33.93274 -118.43614 2864 ft 103 kts 266°
2026-05-06 22:08 33.93120 -118.44478 3484 ft 112 kts 260°
2026-05-06 22:08 33.92477 -118.45166 3786 ft 139 kts 188°
2026-05-06 22:08 33.91472 -118.44969 3954 ft 155 kts 163°
2026-05-06 22:08 33.90420 -118.44751 4249 ft 156 kts 180°
2026-05-06 22:09 33.89264 -118.44768 4290 ft 173 kts 177°
2026-05-06 22:09 33.88065 -118.44738 4256 ft 173 kts 177°
2026-05-06 22:09 33.86901 -118.44665 4267 ft 162 kts 176°
2026-05-06 22:09 33.85805 -118.44607 4260 ft 156 kts 176°
2026-05-06 22:10 33.84719 -118.44548 4266 ft 158 kts 176°
2026-05-06 22:10 33.83613 -118.44499 4266 ft 160 kts 176°
2026-05-06 22:10 33.82490 -118.44444 4268 ft 162 kts 176°
2026-05-06 22:10 33.81358 -118.44385 4271 ft 163 kts 176°
2026-05-06 22:11 33.80224 -118.44322 4274 ft 162 kts 176°
2026-05-06 22:11 33.79100 -118.44258 4276 ft 162 kts 176°
2026-05-06 22:11 33.77969 -118.44203 4275 ft 163 kts 176°
2026-05-06 22:11 33.76852 -118.44148 4273 ft 163 kts 176°
2026-05-06 22:12 33.75717 -118.44097 4276 ft 164 kts 176°
2026-05-06 22:12 33.74577 -118.44039 4297 ft 164 kts 176°
2026-05-06 22:12 33.73444 -118.43964 4299 ft 163 kts 176°